Location: Antist
(43.1184°N, 0.1270°E)
Time: 04:46:09
(UTC+00:00)

Cosmos 2237 Rocket - Pass Details

Date: 19 January 2020
Orbit: 836 x 848 km, 71.0° (Epoch: 23 February)

Event Time Altitude Azimuth Distance (km) Brightness Sun altitude
Rises 18:12:11 0° 338° (NNW) 3,397 5.4 -14.1°
Reaches altitude 10° 18:14:42 10° 343° (NNW) 2,459 4.6 -14.5°
Maximum altitude 18:20:13 54° 61° (ENE) 1,014 2.3 -15.5°
Drops below altitude 10° 18:25:41 10° 138° (SE) 2,444 4.3 -16.5°
Sets 18:28:11 0° 143° (SE) 3,375 5.1 -16.9°
